Project,Study,Ord_Occ,Event_Num,Cast_ID,Date_Time_UTC,Date_Time_PST,Lat_Dec,Lon_Dec,Sta_ID,Line,Sta,Depth,Pressure,PrQ,Temp1,Temp1Q,Temp2,Temp2Q,TempAve,Salt1,Salt1Q,Salt1_Corr,Salt2,Salt2Q,Salt2_Corr,SaltAve_Corr,Ox1,Ox1Q,Ox1_CruiseCorr,Ox1_StaCorr,Ox2,Ox2Q,Ox2_CruiseCorr,Ox2_StaCorr,OxAve_StaCorr,Ox1uM,Ox1uM_CruiseCorr,Ox1uM_StaCorr,Ox2uM,Ox2uM_CruiseCorr,Ox2uM_StaCorr,OxAveuM_StaCorr,FluorV,FluorQ,EstChl_CruiseCorr,EstChl_StaCorr,ISUSV,ISUSQ,EstNO3_CruiseCorr,EstNO3_StaCorr,SigThetaTS1,SigThetaTS1Q,SigThetaTS2,SigThetaTS2Q,BAT,XMiss,TransQ,pH,pHQ,SPAR,SPARQ,PAR,PARQ,PoT1,PoT2,DynHt,SVA,OxSat1,OxSat2,BTL_Depth,BTL_Temp,SaltB,OxB,OxBuM,Chl-a,Phaeo,NO3,NO2,NH4,PO4,SIL
CalCOFI,2007SR,024,25,2007_024d,18-Jul-2020 05:14:10,17-Jul-2020 21:14:10,32.41846,-119.96040,090.0 060.0,090.0,060.0,2.000,2.014,,17.6143,,17.6601,,17.6372,33.5379,,33.5381,33.5403,,33.5419,33.5400,5.4183,,5.6439,5.5569,4.1678,,6.0086,4.4275,4.9922,236.254,246.1375,243.3829,181.728,412.2987,193.7996,218.5913,0.0586,,0.2643,0.1326,-99.0,,-99.0,0.285,24.2461,,24.2369,,0.7001,83.9431,,8.137,,1.9043E+00,,6.0438E-01,,17.6139,17.6598,0.0027,,99.267,76.424,2,17.735,33.5444,5.626,245.64,0.132,0.038,0.0,0.00,0.16,0.23,1.00
CalCOFI,2007SR,024,25,2007_024d,18-Jul-2020 05:14:17,17-Jul-2020 21:14:17,32.41846,-119.96040,090.0 060.0,090.0,060.0,3.000,3.021,,17.7476,,17.7336,,17.7406,33.5370,,33.5372,33.5349,,33.5365,33.5369,5.4003,,5.6251,5.5383,4.1625,,5.9959,4.4162,4.9773,235.475,245.3243,242.5722,181.504,410.3934,193.3105,217.9414,0.0585,,0.2631,0.1322,-99.0,,-99.0,0.285,24.2133,,24.2151,,0.6908,84.1379,,8.136,,1.9043E+00,,5.5726E-01,,17.7471,17.7331,0.0078,,99.187,76.432,,,,,,,,,,,,
CalCOFI,2007SR,024,25,2007_024d,18-Jul-2020 05:14:19,17-Jul-2020 21:14:19,32.41846,-119.96040,090.0 060.0,090.0,060.0,4.000,4.028,,17.5941,,17.5920,,17.5931,33.5360,,33.5362,33.5361,,33.5377,33.5370,5.4156,,5.6411,5.5541,4.1740,,6.0234,4.4407,4.9974,236.135,246.0132,243.2591,181.999,412.0077,194.3913,218.8252,0.0658,,0.3489,0.1610,-99.0,,-99.0,0.285,24.2496,,24.2502,,0.6942,84.0672,,8.137,,1.9043E+00,,5.3511E-01,,17.5935,17.5913,0.0115,,99.178,76.438,,,,,,,,,,,,
CalCOFI,2007SR,024,25,2007_024d,18-Jul-2020 05:14:22,17-Jul-2020 21:14:22,32.41846,-119.96040,090.0 060.0,090.0,060.0,5.000,5.035,,17.5581,,17.5582,,17.5582,33.5356,,33.5358,33.5355,,33.5371,33.5365,5.4168,,5.6423,5.5554,4.1792,,6.0358,4.4518,5.0036,236.185,246.0654,243.3111,182.221,412.1300,194.8760,219.0936,0.0689,,0.3854,0.1731,-99.0,,-99.0,0.285,24.2580,,24.2579,,0.6983,83.9804,,8.137,,1.9043E+00,,5.0527E-01,,17.5572,17.5573,0.0152,,99.131,76.482,,,,,,,,,,,,
CalCOFI,2007SR,024,25,2007_024d,18-Jul-2020 05:14:24,17-Jul-2020 21:14:24,32.41846,-119.96040,090.0 060.0,090.0,060.0,6.000,6.042,,17.5280,,17.5252,,17.5266,33.5347,,33.5349,33.5352,,33.5368,33.5359,5.4140,,5.6394,5.5525,4.1795,,6.0365,4.4524,5.0025,236.063,245.9381,243.1841,182.234,411.8316,194.9044,219.0443,0.0714,,0.4148,0.1827,-99.0,,-99.0,0.285,24.2646,,24.2656,,0.7037,83.8686,,8.137,,1.9043E+00,,4.8795E-01,,17.5270,17.5241,0.0189,,99.023,76.439,,,,,,,,,,,,
CalCOFI,2007SR,024,25,2007_024d,18-Jul-2020 05:14:26,17-Jul-2020 21:14:26,32.41846,-119.96040,090.0 060.0,090.0,060.0,7.000,7.049,,17.5053,,17.5047,,17.5050,33.5349,,33.5351,33.5354,,33.5370,33.5361,5.4095,,5.6347,5.5478,4.1853,,6.0504,4.4648,5.0063,235.865,245.7314,242.9781,182.488,411.3473,195.4590,219.2186,0.0714,,0.4148,0.1827,-99.0,,-99.0,0.285,24.2703,,24.2708,,0.7063,83.8141,,8.137,,1.9043E+00,,4.6089E-01,,17.5041,17.5035,0.0226,,98.898,76.516,,,,,,,,,,,,
CalCOFI,2007SR,024,25,2007_024d,18-Jul-2020 05:14:28,17-Jul-2020 21:14:28,32.41846,-119.96040,090.0 060.0,090.0,060.0,8.000,8.057,,17.4292,,17.4123,,17.4208,33.5302,,33.5304,33.5291,,33.5307,33.5306,5.4254,,5.6513,5.5643,4.1945,,6.0723,4.4844,5.0244,236.552,246.4485,243.6930,182.885,413.0276,196.3258,220.0094,0.0733,,0.4371,0.1900,-99.0,,-99.0,0.285,24.2849,,24.2881,,0.7116,83.7021,,8.138,,1.9043E+00,,4.3864E-01,,17.4279,17.4110,0.0262,,99.040,76.546,,,,,,,,,,,,
CalCOFI,2007SR,024,25,2007_024d,18-Jul-2020 05:14:30,17-Jul-2020 21:14:30,32.41846,-119.96040,090.0 060.0,090.0,060.0,9.000,9.064,,17.3188,,17.3067,,17.3128,33.5294,,33.5296,33.5297,,33.5313,33.5305,5.4403,,5.6669,5.5797,4.2037,,6.0943,4.5040,5.0419,237.199,247.1239,244.3664,183.283,414.6101,197.1948,220.7806,0.0656,,0.3465,0.1603,-99.0,,-99.0,0.285,24.3107,,24.3138,,0.7122,83.6908,,8.138,,1.9043E+00,,4.2486E-01,,17.3173,17.3053,0.0299,,99.103,76.560,,,,,,,,,,,,
CalCOFI,2007SR,024,25,2007_024d,18-Jul-2020 05:14:32,17-Jul-2020 21:14:32,32.41846,-119.96040,090.0 060.0,090.0,060.0,10.000,10.071,,17.2754,,17.2773,,17.2764,33.5315,,33.5317,33.5327,,33.5343,33.5330,5.4493,,5.6763,5.5890,4.2067,,6.1015,4.5104,5.0497,237.589,247.5311,244.7722,183.409,415.5640,197.4699,221.1211,0.0638,,0.3254,0.1532,,,,,24.3226,,24.3231,,0.7101,83.7345,,8.139,,1.9043E+00,,4.0744E-01,,17.2737,17.2756,0.0335,,99.186,76.571,,,,,,,,,,,,
CalCOFI,2007SR,024,25,2007_024d,18-Jul-2020 05:14:34,17-Jul-2020 21:14:34,32.41846,-119.96040,090.0 060.0,090.0,060.0,11.000,11.078,,17.2616,,17.2653,,17.2635,33.5317,,33.5319,33.5324,,33.5340,33.5330,5.4534,,5.6806,5.5933,4.2082,,6.1050,4.5136,5.0535,237.764,247.7137,244.9544,183.476,415.9920,197.6162,221.2853,0.0600,,0.2807,0.1381,,,,,24.3261,,24.3257,,0.7098,83.7401,,8.139,,1.9043E+00,,3.8415E-01,,17.2597,17.2635,0.0371,,99.233,76.582,,,,,,,,,,,,
CalCOFI,2007SR,024,25,2007_024d,18-Jul-2020 05:14:36,17-Jul-2020 21:14:36,32.41846,-119.96040,090.0 060.0,090.0,060.0,12.000,12.085,,17.2488,,17.2481,,17.2485,33.5314,,33.5316,33.5322,,33.5338,33.5327,5.4500,,5.6770,5.5898,4.2102,,6.1098,4.5179,5.0539,237.617,247.5603,244.8014,183.562,415.6325,197.8040,221.3027,0.0632,,0.3183,0.1508,,,,,24.3290,,24.3297,,0.7115,83.7035,,8.139,,1.9043E+00,,3.6430E-01,,17.2469,17.2462,0.0407,,99.148,76.592,12,17.224,33.5356,5.642,246.34,0.177,0.051,0.06,0.00,0.00,0.23,0.98
CalCOFI,2007SR,024,25,2007_024d,18-Jul-2020 05:14:38,17-Jul-2020 21:14:38,32.41846,-119.96040,090.0 060.0,090.0,060.0,13.000,13.092,,17.2344,,17.2331,,17.2338,33.5314,,33.5316,33.5323,,33.5339,33.5328,5.4543,,5.6815,5.5942,4.2120,,6.1141,4.5217,5.0580,237.803,247.7545,244.9949,183.640,416.0874,197.9743,221.4846,0.0643,,0.3313,0.1552,,,,,24.3324,,24.3334,,0.7107,83.7213,,8.140,,1.9043E+00,,3.5359E-01,,17.2323,17.2310,0.0443,,99.198,76.603,,,,,,,,,,,,
CalCOFI,2007SR,024,25,2007_024d,18-Jul-2020 05:14:40,17-Jul-2020 21:14:40,32.41846,-119.96040,090.0 060.0,090.0,060.0,14.000,14.099,,17.2230,,17.2225,,17.2228,33.5318,,33.5320,33.5326,,33.5342,33.5331,5.4575,,5.6848,5.5975,4.2115,,6.1129,4.5206,5.0591,237.940,247.8975,245.1375,183.618,416.4225,197.9262,221.5319,0.0644,,0.3324,0.1555,,,,,24.3354,,24.3362,,0.7132,83.6688,,8.140,,1.9043E+00,,3.3649E-01,,17.2207,17.2202,0.0480,,99.234,76.579,,,,,,,,,,,,
CalCOFI,2007SR,024,25,2007_024d,18-Jul-2020 05:14:42,17-Jul-2020 21:14:42,32.41846,-119.96040,090.0 060.0,090.0,060.0,15.000,15.106,,17.2134,,17.2140,,17.2137,33.5320,,33.5322,33.5329,,33.5345,33.5334,5.4559,,5.6832,5.5959,4.2123,,6.1148,4.5224,5.0592,237.870,247.8244,245.0647,183.650,416.2513,197.9961,221.5304,0.0598,,0.2784,0.1373,,,,,24.3379,,24.3385,,0.7136,83.6604,,8.140,,1.9043E+00,,3.1232E-01,,17.2110,17.2115,0.0516,,99.187,76.580,,,,,,,,,,,,
CalCOFI,2007SR,024,25,2007_024d,18-Jul-2020 05:14:44,17-Jul-2020 21:14:44,32.41846,-119.96040,090.0 060.0,090.0,060.0,16.000,16.113,,17.2080,,17.2081,,17.2081,33.5323,,33.5325,33.5332,,33.5348,33.5337,5.4558,,5.6831,5.5958,4.2151,,6.1215,4.5283,5.0621,237.867,247.8213,245.0616,183.772,416.2439,198.2625,221.6621,0.0607,,0.2889,0.1409,,,,,24.3395,,24.3402,,0.7125,83.6836,,8.140,,1.9043E+00,,2.9766E-01,,17.2054,17.2055,0.0552,,99.176,76.622,,,,,,,,,,,,
CalCOFI,2007SR,024,25,2007_024d,18-Jul-2020 05:14:46,17-Jul-2020 21:14:46,32.41846,-119.96040,090.0 060.0,090.0,060.0,17.000,17.121,,17.2016,,17.2016,,17.2016,33.5325,,33.5327,33.5334,,33.5350,33.5339,5.4526,,5.6797,5.5925,4.2159,,6.1234,4.5300,5.0613,237.726,247.6741,244.9148,183.808,415.8990,198.3411,221.6280,0.0647,,0.3360,0.1567,,,,,24.3412,,24.3419,,0.7121,83.6926,,8.139,,1.9043E+00,,2.8213E-01,,17.1988,17.1988,0.0588,,99.105,76.628,,,,,,,,,,,,
CalCOFI,2007SR,024,25,2007_024d,18-Jul-2020 05:14:48,17-Jul-2020 21:14:48,32.41846,-119.96040,090.0 060.0,090.0,060.0,18.000,18.128,,17.1955,,17.1951,,17.1953,33.5327,,33.5329,33.5335,,33.5351,33.5340,5.4517,,5.6788,5.5915,4.2185,,6.1296,4.5356,5.0636,237.685,247.6313,244.8721,183.920,415.7988,198.5856,221.7289,0.0667,,0.3595,0.1645,,,,,24.3428,,24.3436,,0.7118,83.6974,,8.139,,1.9043E+00,,2.6438E-01,,17.1926,17.1921,0.0624,,99.077,76.665,,,,,,,,,,,,
CalCOFI,2007SR,024,25,2007_024d,18-Jul-2020 05:14:50,17-Jul-2020 21:14:50,32.41846,-119.96040,090.0 060.0,090.0,060.0,19.000,19.135,,17.1890,,17.1886,,17.1888,33.5327,,33.5329,33.5336,,33.5352,33.5341,5.4534,,5.6806,5.5933,4.2177,,6.1277,4.5339,5.0636,237.761,247.7106,244.9512,183.884,415.9847,198.5070,221.7291,0.0686,,0.3818,0.1719,,,,,24.3444,,24.3452,,0.7136,83.6610,,8.140,,1.9043E+00,,2.4512E-01,,17.1859,17.1854,0.0660,,99.096,76.641,,,,,,,,,,,,
CalCOFI,2007SR,024,25,2007_024d,18-Jul-2020 05:14:52,17-Jul-2020 21:14:52,32.41846,-119.96040,090.0 060.0,090.0,060.0,20.000,20.142,,17.1844,,17.1850,,17.1847,33.5328,,33.5330,33.5337,,33.5353,33.5342,5.4547,,5.6819,5.5946,4.2158,,6.1232,4.5298,5.0622,237.817,247.7691,245.0095,183.801,416.1216,198.3258,221.6677,0.0668,,0.3607,0.1649,,,,,24.3456,,24.3462,,0.7132,83.6702,,8.139,,1.9043E+00,,2.3594E-01,,17.1811,17.1817,0.0696,,99.111,76.601,,,,,,,,,,,,
CalCOFI,2007SR,024,25,2007_024d,18-Jul-2020 05:14:55,17-Jul-2020 21:14:55,32.41846,-119.96040,090.0 060.0,090.0,060.0,21.000,21.149,,17.1815,,17.1822,,17.1819,33.5328,,33.5330,33.5337,,33.5353,33.5342,5.4519,,5.6790,5.5917,4.2169,,6.1258,4.5322,5.0620,237.694,247.6407,244.8815,183.849,415.8208,198.4306,221.6561,0.0668,,0.3607,0.1649,,,,,24.3464,,24.3468,,0.7124,83.6853,,8.139,,1.9043E+00,,2.1404E-01,,17.1780,17.1788,0.0732,,99.054,76.617,,,,,,,,,,,,
CalCOFI,2007SR,024,25,2007_024d,18-Jul-2020 05:14:56,17-Jul-2020 21:14:56,32.41846,-119.96040,090.0 060.0,090.0,060.0,22.000,22.156,,17.1756,,17.1756,,17.1756,33.5327,,33.5329,33.5335,,33.5351,33.5340,5.4539,,5.6811,5.5938,4.2179,,6.1282,4.5343,5.0641,237.781,247.7315,244.9720,183.896,416.0336,198.5332,221.7526,0.0727,,0.4300,0.1877,,,,,24.3477,,24.3483,,0.7134,83.6653,,8.139,,1.9043E+00,,2.0065E-01,,17.1719,17.1720,0.0768,,99.079,76.626,22,17.060,33.5358,5.665,247.35,0.233,0.056,0.06,0.00,0.00,0.23,0.98
CalCOFI,2007SR,024,25,2007_024d,18-Jul-2020 05:14:58,17-Jul-2020 21:14:58,32.41846,-119.96040,090.0 060.0,090.0,060.0,23.000,23.164,,17.1723,,17.1718,,17.1721,33.5325,,33.5327,33.5335,,33.5351,33.5339,5.4621,,5.6896,5.6023,4.2202,,6.1337,4.5392,5.0708,238.138,248.1042,245.3436,183.992,416.9067,198.7428,222.0432,0.0770,,0.4806,0.2040,,,,,24.3484,,24.3492,,0.7142,83.6486,,8.139,,1.9043E+00,,1.9218E-01,,17.1685,17.1680,0.0804,,99.221,76.661,,,,,,,,,,,,
CalCOFI,2007SR,024,25,2007_024d,18-Jul-2020 05:15:00,17-Jul-2020 21:15:00,32.41846,-119.96040,090.0 060.0,090.0,060.0,24.000,24.171,,17.1519,,17.1541,,17.1530,33.5302,,33.5304,33.5313,,33.5329,33.5317,5.4557,,5.6830,5.5957,4.2205,,6.1344,4.5398,5.0678,237.858,247.8119,245.0522,184.008,416.2219,198.7778,221.9150,0.0832,,0.5536,0.2271,,,,,24.3515,,24.3518,,0.7156,83.6185,,8.139,,1.9043E+00,,1.8129E-01,,17.1479,17.1501,0.0840,,99.065,76.641,,,,,,,,,,,,
CalCOFI,2007SR,024,25,2007_024d,18-Jul-2020 05:15:03,17-Jul-2020 21:15:03,32.41846,-119.96040,090.0 060.0,090.0,060.0,25.000,25.178,,17.1240,,17.1146,,17.1193,33.5282,,33.5284,33.5273,,33.5289,33.5287,5.4799,,5.7082,5.6207,4.2284,,6.1533,4.5567,5.0887,238.912,248.9121,246.1491,184.351,418.7998,199.5267,222.8379,0.0815,,0.5336,0.2208,,,,,24.3566,,24.3581,,0.7181,83.5667,,8.139,,1.9043E+00,,1.5848E-01,,17.1199,17.1104,0.0876,,99.450,76.724,,,,,,,,,,,,
CalCOFI,2007SR,024,25,2007_024d,18-Jul-2020 05:15:05,17-Jul-2020 21:15:05,32.41846,-119.96040,090.0 060.0,090.0,060.0,26.000,26.185,,16.9519,,16.9375,,16.9447,33.5131,,33.5133,33.5121,,33.5137,33.5135,5.5251,,5.7555,5.6675,4.2478,,6.1996,4.5980,5.1328,240.878,250.9644,248.1951,185.188,423.6084,201.3542,224.7747,0.0923,,0.6607,0.2601,,,,,24.3856,,24.3882,,0.7211,83.5051,,8.140,,1.9043E+00,,1.4911E-01,,16.9477,16.9333,0.0912,,99.930,76.805,,,,,,,,,,,,
CalCOFI,2007SR,024,25,2007_024d,18-Jul-2020 05:15:06,17-Jul-2020 21:15:06,32.41846,-119.96040,090.0 060.0,090.0,060.0,27.000,27.192,,16.8454,,16.8318,,16.8386,33.5046,,33.5048,33.5024,,33.5040,33.5044,5.5475,,5.7789,5.6907,4.2597,,6.2280,4.6234,5.1571,241.850,251.9791,249.2066,185.705,425.9858,202.4830,225.8448,0.0936,,0.6760,0.2648,,,,,24.4041,,24.4055,,0.7219,83.4881,,8.140,,1.9043E+00,,1.4259E-01,,16.8410,16.8274,0.0947,,100.123,76.859,,,,,,,,,,,,
CalCOFI,2007SR,024,25,2007_024d,18-Jul-2020 05:15:08,17-Jul-2020 21:15:08,32.41846,-119.96040,090.0 060.0,090.0,060.0,28.000,28.199,,16.7694,,16.7555,,16.7625,33.5011,,33.5013,33.5001,,33.5017,33.5015,5.5719,,5.8044,5.7160,4.2643,,6.2390,4.6332,5.1746,242.910,253.0856,250.3098,185.903,428.5784,202.9153,226.6126,0.0975,,0.7219,0.2785,,,,,24.4192,,24.4216,,0.7243,83.4365,,8.140,,1.9043E+00,,1.4270E-01,,16.7649,16.7510,0.0983,,100.414,76.828,,,,,,,,,,,,
CalCOFI,2007SR,024,25,2007_024d,18-Jul-2020 05:15:10,17-Jul-2020 21:15:10,32.41846,-119.96040,090.0 060.0,090.0,060.0,29.000,29.207,,16.6460,,16.6753,,16.6607,33.4953,,33.4955,33.5003,,33.5019,33.4987,5.5724,,5.8049,5.7165,4.2716,,6.2564,4.6488,5.1827,242.925,253.1013,250.3254,186.218,428.6151,203.6031,226.9643,0.1083,,0.8491,0.3156,,,,,24.4434,,24.4404,,0.7235,83.4539,,8.141,,1.9043E+00,,1.3168E-01,,16.6413,16.6706,0.1018,,100.179,76.840,,,,,,,,,,,,
CalCOFI,2007SR,024,25,2007_024d,18-Jul-2020 05:15:13,17-Jul-2020 21:15:13,32.41846,-119.96040,090.0 060.0,090.0,060.0,30.000,30.214,,16.5453,,16.6218,,16.5836,33.4868,,33.4870,33.4874,,33.4890,33.4880,5.5955,,5.8290,5.7404,4.2953,,6.3130,4.6993,5.2199,243.930,254.1504,251.3713,187.251,431.0732,205.8585,228.6149,0.1145,,0.9222,0.3362,,,,,24.4602,,24.4429,,0.7255,83.4124,,8.141,,1.9043E+00,,1.1691E-01,,16.5405,16.6170,0.1053,,100.393,77.179,,,,,,,,,,,,
CalCOFI,2007SR,024,25,2007_024d,18-Jul-2020 05:15:15,17-Jul-2020 21:15:15,32.41846,-119.96040,090.0 060.0,090.0,060.0,31.000,31.221,,16.2487,,16.2123,,16.2305,33.4697,,33.4699,33.4658,,33.4674,33.4687,5.6525,,5.8886,5.7994,4.3321,,6.4008,4.7778,5.2886,246.399,256.7278,253.9407,188.840,437.1120,209.3279,231.6343,0.1177,,0.9599,0.3467,,,,,24.5153,,24.5206,,0.7334,83.2478,,8.142,,1.9043E+00,,1.0603E-01,,16.2437,16.2074,0.1088,,100.821,77.212,,,,,,,,,,,,
CalCOFI,2007SR,024,25,2007_024d,18-Jul-2020 05:15:16,17-Jul-2020 21:15:16,32.41846,-119.96040,090.0 060.0,090.0,060.0,32.000,32.228,,16.0673,,16.0392,,16.0533,33.4617,,33.4619,33.4597,,33.4613,33.4616,5.6731,,5.9101,5.8207,4.3471,,6.4366,4.8097,5.3152,247.289,257.6569,254.8669,189.491,439.2888,210.7493,232.8081,0.1245,,1.0401,0.3685,,,,,24.5504,,24.5553,,0.7302,83.3132,,8.143,,1.9043E+00,,1.0388E-01,,16.0623,16.0342,0.1122,,100.825,77.216,32,15.954,33.4762,,258.39,0.340,0.146,0.08,0.041,0.00,0.27,1.16
CalCOFI,2007SR,024,25,2007_024d,18-Jul-2020 05:15:18,17-Jul-2020 21:15:18,32.41846,-119.96040,090.0 060.0,090.0,060.0,33.000,33.235,,15.9225,,15.9165,,15.9195,33.4566,,33.4568,33.4578,,33.4594,33.4581,5.6948,,5.9328,5.8432,4.3633,,6.4753,4.8443,5.3438,248.228,258.6371,255.8441,190.190,441.5854,212.2755,234.0598,0.1321,,1.1297,0.3921,,,,,24.5793,,24.5816,,0.7293,83.3330,,8.143,,1.9043E+00,,9.6267E-02,,15.9173,15.9113,0.1156,,100.921,77.316,,,,,,,,,,,,
CalCOFI,2007SR,024,25,2007_024d,18-Jul-2020 05:15:20,17-Jul-2020 21:15:20,32.41846,-119.96040,090.0 060.0,090.0,060.0,34.000,34.243,,15.8220,,15.8132,,15.8176,33.4516,,33.4518,33.4519,,33.4535,33.4527,5.6724,,5.9094,5.8200,4.3856,,6.5285,4.8918,5.3559,247.248,257.6141,254.8243,191.157,439.1885,214.3869,234.6056,0.1410,,1.2348,0.4188,,,,,24.5981,,24.6003,,0.7315,83.2871,,8.141,,1.9043E+00,,8.6324E-02,,15.8167,15.8079,0.1190,,100.322,77.550,,,,,,,,,,,,
CalCOFI,2007SR,024,25,2007_024d,18-Jul-2020 05:15:22,17-Jul-2020 21:15:22,32.41846,-119.96040,090.0 060.0,090.0,060.0,35.000,35.250,,15.6265,,15.5906,,15.6086,33.4359,,33.4361,33.4345,,33.4361,33.4361,5.6780,,5.9152,5.8258,4.4217,,6.6147,4.9688,5.3973,247.484,257.8604,255.0699,192.726,439.7657,217.8126,236.4413,0.1360,,1.1757,0.4039,,,,,24.6297,,24.6366,,0.7319,83.2787,,8.138,,1.9043E+00,,7.5070E-02,,15.6211,15.5852,0.1223,,100.025,77.838,,,,,,,,,,,,
CalCOFI,2007SR,024,25,2007_024d,18-Jul-2020 05:15:24,17-Jul-2020 21:15:24,32.41846,-119.96040,090.0 060.0,090.0,060.0,36.000,36.257,,15.1896,,15.1578,,15.1737,33.4073,,33.4075,33.4017,,33.4033,33.4054,5.7332,,5.9729,5.8829,4.4679,,6.7250,5.0673,5.4751,249.870,260.3512,257.5529,194.728,445.6015,222.1838,239.8684,0.1414,,1.2395,0.4200,,,,,24.7039,,24.7065,,0.7353,83.2091,,8.138,,1.9043E+00,,6.4271E-02,,15.1841,15.1524,0.1256,,100.108,77.964,,,,,,,,,,,,
CalCOFI,2007SR,024,25,2007_024d,18-Jul-2020 05:15:27,17-Jul-2020 21:15:27,32.41846,-119.96040,090.0 060.0,090.0,060.0,37.000,37.264,,14.6892,,14.6806,,14.6849,33.3811,,33.3813,33.3792,,33.3808,33.3811,5.7446,,5.9848,5.8947,4.5146,,6.8365,5.1668,5.5308,250.347,260.8491,258.0494,196.746,446.7682,226.5899,242.3197,0.1474,,1.3103,0.4374,,,,,24.7921,,24.7925,,0.7330,83.2565,,8.138,,1.9043E+00,,4.2990E-02,,14.6837,14.6751,0.1289,,99.296,78.022,,,,,,,,,,,,
CalCOFI,2007SR,024,25,2007_024d,18-Jul-2020 05:15:29,17-Jul-2020 21:15:29,32.41846,-119.96040,090.0 060.0,090.0,060.0,38.000,38.272,,14.4443,,14.4307,,14.4375,33.3712,,33.3714,33.3702,,33.3718,33.3716,5.7387,,5.9787,5.8886,4.5376,,6.8914,5.2159,5.5523,250.080,260.5704,257.7715,197.737,446.1152,228.7536,243.2626,0.1476,,1.3127,0.4380,,,,,24.8367,,24.8388,,0.7292,83.3358,,8.136,,1.9043E+00,,3.0120E-02,,14.4387,14.4251,0.1320,,98.702,78.021,,,,,,,,,,,,
CalCOFI,2007SR,024,25,2007_024d,18-Jul-2020 05:15:30,17-Jul-2020 21:15:30,32.41846,-119.96040,090.0 060.0,090.0,060.0,39.000,39.279,,14.3515,,14.3433,,14.3474,33.3687,,33.3689,33.3702,,33.3718,33.3704,5.7433,,5.9835,5.8934,4.5469,,6.9136,5.2357,5.5646,250.274,260.7729,257.9734,198.138,446.5897,229.6292,243.8013,0.1533,,1.3800,0.4541,,,,,24.8543,,24.8572,,0.7270,83.3801,,8.132,,1.9043E+00,,2.7268E-02,,14.3459,14.3377,0.1351,,98.594,78.043,,,,,,,,,,,,
CalCOFI,2007SR,024,25,2007_024d,18-Jul-2020 05:15:32,17-Jul-2020 21:15:32,32.41846,-119.96040,090.0 060.0,090.0,060.0,40.000,40.286,,14.2905,,14.2943,,14.2924,33.3755,,33.3757,33.3790,,33.3806,33.3782,5.7506,,5.9911,5.9010,4.5481,,6.9165,5.2383,5.5697,250.590,261.1028,258.3022,198.190,447.3626,229.7427,244.0225,0.1565,,1.4178,0.4629,,,,,24.8724,,24.8743,,0.7270,83.3803,,8.128,,1.9043E+00,,1.7951E-02,,14.2847,14.2886,0.1383,,98.603,77.992,,,,,,,,,,,,
CalCOFI,2007SR,024,25,2007_024d,18-Jul-2020 05:15:36,17-Jul-2020 21:15:36,32.41846,-119.96040,090.0 060.0,090.0,060.0,41.000,41.293,,14.2633,,14.2579,,14.2606,33.3800,,33.3802,33.3817,,33.3833,33.3818,5.7283,,5.9678,5.8779,4.5487,,6.9179,5.2395,5.5587,249.617,260.0871,257.2897,198.212,444.9827,229.7907,243.5402,0.1562,,1.4142,0.4621,,,,,24.8817,,24.8841,,0.7252,83.4181,,8.122,,1.9043E+00,,-1.810E-05,,14.2574,14.2520,0.1413,,98.170,77.946,41,14.020,,,260.13,,,,,,,
CalCOFI,2007SR,024,25,2007_024d,18-Jul-2020 05:15:37,17-Jul-2020 21:15:37,32.41846,-119.96040,090.0 060.0,090.0,060.0,42.000,42.300,,14.2294,,14.2296,,14.2295,33.3815,,33.3817,33.3835,,33.3851,33.3834,5.7315,,5.9711,5.8812,4.5515,,6.9246,5.2455,5.5634,249.753,260.2291,257.4312,198.332,445.3154,230.0527,243.7420,0.1521,,1.3658,0.4507,,,,,24.8899,,24.8914,,0.7247,83.4298,,8.123,,1.9043E+00,,-5.187E-05,,14.2234,14.2236,0.1444,,98.158,77.950,,,,,,,,,,,,
CalCOFI,2007SR,024,25,2007_024d,18-Jul-2020 05:15:38,17-Jul-2020 21:15:38,32.41846,-119.96040,090.0 060.0,090.0,060.0,43.000,43.308,,14.2281,,14.2273,,14.2277,33.3842,,33.3844,33.3865,,33.3881,33.3863,5.7276,,5.9671,5.8771,4.5509,,6.9232,5.2442,5.5607,249.583,260.0516,257.2543,198.305,444.8996,229.9938,243.6241,0.1572,,1.4260,0.4648,,,,,24.8923,,24.8943,,0.7254,83.4145,,8.119,,1.9043E+00,,1.0000E-12,,14.2218,14.2211,0.1475,,98.090,77.937,,,,,,,,,,,,
CalCOFI,2007SR,024,25,2007_024d,18-Jul-2020 05:15:40,17-Jul-2020 21:15:40,32.41847,-119.96040,090.0 060.0,090.0,060.0,44.000,44.315,,14.2218,,14.2208,,14.2213,33.3863,,33.3865,33.3882,,33.3898,33.3882,5.7235,,5.9628,5.8729,4.5477,,6.9155,5.2374,5.5552,249.404,259.8647,257.0680,198.165,444.4618,229.6881,243.3781,0.1589,,1.4461,0.4695,,,,,24.8953,,24.8970,,0.7258,83.4050,,8.118,,1.9043E+00,,1.0000E-12,,14.2154,14.2145,0.1506,,98.009,77.873,,,,,,,,,,,,
CalCOFI,2007SR,024,25,2007_024d,18-Jul-2020 05:15:43,17-Jul-2020 21:15:43,32.41846,-119.96040,090.0 060.0,090.0,060.0,45.000,45.322,,14.2047,,14.1991,,14.2019,33.3881,,33.3883,33.3898,,33.3914,33.3899,5.5810,,5.8139,5.7254,4.5566,,6.9368,5.2564,5.4909,243.190,253.3779,250.6012,198.552,429.2632,230.5331,240.5672,0.1631,,1.4957,0.4808,,,,,24.9003,,24.9028,,0.7254,83.4153,,8.116,,1.9043E+00,,1.0000E-12,,14.1982,14.1926,0.1537,,95.535,77.992,,,,,,,,,,,,
CalCOFI,2007SR,024,25,2007_024d,18-Jul-2020 05:15:45,17-Jul-2020 21:15:45,32.41846,-119.96040,090.0 060.0,090.0,060.0,46.000,46.330,,13.9924,,13.9877,,13.9901,33.3967,,33.3969,33.3967,,33.3983,33.3976,5.4476,,5.6745,5.5873,4.5809,,6.9948,5.3082,5.4478,237.368,247.3004,244.5423,199.604,415.0234,232.8300,238.6862,0.1700,,1.5773,0.4988,,,,,24.9511,,24.9521,,0.7282,83.3567,,8.113,,1.9043E+00,,1.0000E-12,,13.9858,13.9811,0.1568,,92.857,78.077,,,,,,,,,,,,
CalCOFI,2007SR,024,25,2007_024d,18-Jul-2020 05:15:47,17-Jul-2020 21:15:47,32.41846,-119.96040,090.0 060.0,090.0,060.0,47.000,47.337,,13.7731,,13.7676,,13.7704,33.3991,,33.3993,33.3978,,33.3994,33.3994,5.4662,,5.6939,5.6065,4.5943,,7.0268,5.3368,5.4717,238.166,248.1334,245.3727,200.175,416.9752,234.0768,239.7248,0.1652,,1.5206,0.4863,,,,,24.9983,,24.9984,,0.7207,83.5126,,8.108,,1.9043E+00,,1.0000E-12,,13.7664,13.7610,0.1598,,92.761,77.955,,,,,,,,,,,,
CalCOFI,2007SR,024,25,2007_024d,18-Jul-2020 05:15:48,17-Jul-2020 21:15:48,32.41846,-119.96040,090.0 060.0,090.0,060.0,48.000,48.344,,13.6944,,13.6869,,13.6907,33.3996,,33.3998,33.4006,,33.4022,33.4010,5.4722,,5.7002,5.6127,4.5926,,7.0227,5.3331,5.4729,238.423,248.4017,245.6402,200.097,417.6038,233.9064,239.7733,0.1640,,1.5064,0.4832,,,,,25.0148,,25.0171,,0.7173,83.5826,,8.101,,1.9043E+00,,1.0000E-12,,13.6877,13.6801,0.1627,,92.714,77.799,,,,,,,,,,,,
CalCOFI,2007SR,024,25,2007_024d,18-Jul-2020 05:15:51,17-Jul-2020 21:15:51,32.41846,-119.96040,090.0 060.0,090.0,060.0,49.000,49.351,,13.6402,,13.6527,,13.6465,33.3992,,33.3994,33.4058,,33.4074,33.4034,5.4307,,5.6568,5.5698,4.5853,,7.0053,5.3176,5.4437,236.614,246.5133,243.7576,199.780,413.1793,233.2143,238.4860,0.1646,,1.5135,0.4848,,,,,25.0256,,25.0282,,0.7306,83.3092,,8.095,,1.9043E+00,,1.0000E-12,,13.6334,13.6459,0.1657,,91.910,77.625,,,,,,,,,,,,
CalCOFI,2007SR,024,25,2007_024d,18-Jul-2020 05:15:54,17-Jul-2020 21:15:54,32.41846,-119.96040,090.0 060.0,090.0,060.0,50.000,50.359,,13.5579,,13.5701,,13.5640,33.3989,,33.3991,33.3993,,33.4009,33.4000,5.3655,,5.5887,5.5023,4.5773,,6.9862,5.3005,5.4014,233.769,243.5434,240.7968,199.429,406.2208,232.4479,236.6224,0.1622,,1.4851,0.4784,,,,,25.0421,,25.0400,,0.7127,83.6786,,8.090,,1.9043E+00,,1.0000E-12,,13.5509,13.5631,0.1686,,90.653,77.356,,,,,,,,,,,,
CalCOFI,2007SR,024,25,2007_024d,18-Jul-2020 05:15:55,17-Jul-2020 21:15:55,32.41846,-119.96040,090.0 060.0,090.0,060.0,51.000,51.366,,13.4661,,13.4643,,13.4652,33.4051,,33.4053,33.4068,,33.4084,33.4069,5.3779,,5.6017,5.5151,4.5784,,6.9888,5.3029,5.4090,234.304,244.1018,241.3536,199.469,407.5293,232.5353,236.9445,0.1612,,1.4733,0.4757,,,,,25.0656,,25.0673,,0.7121,83.6928,,8.087,,1.9043E+00,,1.0000E-12,,13.4590,13.4572,0.1716,,90.696,77.210,,,,,,,,,,,,